Location: Audinghen
(50.8518°N, 1.6129°E)
Time: 07:30:26
(UTC+00:00)

Meteor 1-24 Rocket - Pass Details

Date: 07 August 2020
Orbit: 789 x 928 km, 81.2° (Epoch: 26 September)

Event Time Altitude Azimuth Distance (km) Brightness Sun altitude
Rises 01:55:54 0° 348° (NNW) 3,420 7.6 -18.1°
Reaches altitude 10° 01:58:22 10° 349° (N) 2,460 6.8 -17.9°
Maximum altitude 02:03:56 79° 77° (ENE) 836 3.7 -17.5°
Enters shadow 02:08:27 15° 163° (SSE) 2,056 5.3 -17.1°
